P/2015 J3 ( NEOWISE ) 2021

Japanese version
Home page
Updated on November 3, 2020

---------------------------------------------------------------------

* Profile

* Orbital Elements

Epoch 2021 Apr. 16.0 TT = JDT 2459320.5
T 2021 Apr. 22.16000 TT                                 MPCW
q   1.4920117            (2000.0)            P               Q
n   0.16090753     Peri.  129.45789     -0.48049908     +0.86704570
a   3.3477407      Node   111.35076     -0.84180302     -0.41386185
e   0.5543228      Incl.    8.13091     -0.24594373     -0.27739885
P   6.13
From 107 observations 2015 May 15-Sept. 7, mean residual 0".4.

* Finding Charts

* Magnitudes Graph

        m1 = 16.0 + 5 log d + 10.0 log r

---------------------------------------------------------------------

The orbital elements are published on M.P.E.C. 2015-S97.
The charts are made with StellaNavigator Ver.10 (AstroArts).
The magnitudes graphs are made with Comet for Windows.

---------------------------------------------------------------------

Copyright(C) Seiichi Yoshida (comet@aerith.net). All rights reserved.